Location: Unspecified
(17.6330°N, 0.0000°E)
Time: 08:51:45
(UTC+00:00)

S-56A Canister/Altair - Pass Details

Date: 02 July 2019
Orbit: 633 x 2499 km, 38.9° (Epoch: 24 August)

Event Time Altitude Azimuth Distance (km) Brightness Sun altitude
Rises 09:49:26 0° 223° (SW) 5,897 11.8 58.1°
Reaches altitude 10° 09:53:08 10° 221° (SW) 5,016 11.5 58.9°
Maximum altitude 10:08:04 72° 139° (SE) 2,560 11.6 62.3°
Drops below altitude 10° 10:21:42 10° 58° (ENE) 4,631 12.0 65.4°
Sets 10:24:57 0° 57° (ENE) 5,441 12.2 66.2°
